• Join FlightAware (Why Join?)
  • Login
  • US Flag 
11:35PM EST


 

Airport Tracker/Info


-or-


 

Live Flight TrackerFlight Track Log ✈ SWA2004 ✈ 21-Apr-2013 ✈ KMDW - KBDL

Flight Track Log - Related Links

Times and Time Zones

All times are in EDT time to prevent confusion due to time zone crossing. See the SWA2004 flight status page for this flight to view local times or setup timezone preferences in your user account.

Time Position Orientation Groundspeed Altitude Reporting Facility
EDT Latitude Longitude Course Direction KTS MPH feet Rate Location/Type
10:58AM 41.7667 -87.7167 75° East 163 188 2,800  Level Chicago TRACON
10:59AM 41.7833 -87.6333 75° East 231 266 4,800 1,400 Climbing Chicago TRACON
10:59AM 41.7808 -87.5992 96° East 226 260 4,900 1,041 Climbing Chicago Center
11:00AM 41.7836 -87.4781 88° East 264 304 6,500 2,683 Climbing Chicago Center
11:01AM 41.7772 -87.3692 94° East 290 334 10,400 3,366 Climbing Chicago Center
11:02AM 41.7717 -87.2550 94° East 305 351 13,400 2,927 Climbing Chicago Center
11:03AM 41.7636 -87.1222 95° East 359 413 16,400 2,683 Climbing Chicago Center
11:05AM 41.7617 -86.9797 91° East 383 441 18,900 2,661 Climbing Chicago Center
11:06AM 41.7644 -86.8311 89° East 400 460 21,900 2,878 Climbing Chicago Center
11:07AM 41.7661 -86.6531 89° East 417 480 24,800 2,488 Climbing Chicago Center
11:08AM 41.7667 -86.4917 90° East 435 501 27,000 2,000 Climbing Chicago Center
11:09AM 41.7689 -86.3253 89° East 448 516 28,900 1,707 Climbing Chicago Center
11:10AM 41.7958 -86.1547 78° East 468 539 30,500 1,659 Climbing Chicago Center
11:11AM 41.8258 -85.9806 77° East 478 550 32,300 1,805 Climbing Chicago Center
11:12AM 41.8561 -85.8031 77° East 481 554 34,200 1,839 Climbing Chicago Center
11:13AM 41.8856 -85.6297 77° East 482 555 36,100 1,366 Climbing Chicago Center
11:14AM 41.9142 -85.4561 77° East 475 547 37,000 551 Climbing Chicago Center
11:14AM 41.9339 -85.3458 76° East 481 554 37,000  Level Cleveland Center
11:15AM 41.9539 -85.1656 81° East 481 554 37,000  Level Cleveland Center
11:16AM 41.9525 -84.9839 91° East 481 554 37,000  Level Cleveland Center
11:17AM 41.9558 -84.7858 89° East 481 554 37,000  Level Cleveland Center
11:18AM 41.9658 -84.6244 85° East 481 554 37,000  Level Cleveland Center
11:19AM 41.9844 -84.4497 82° East 475 547 37,000  Level Cleveland Center
11:20AM 41.9972 -84.2519 85° East 475 547 37,000  Level Cleveland Center
11:21AM 42.0153 -84.0714 82° East 481 554 37,000  Level Cleveland Center
11:22AM 42.0311 -83.8931 83° East 481 554 37,000  Level Cleveland Center
11:23AM 42.0464 -83.7150 83° East 476 548 37,000  Level Cleveland Center
11:24AM 42.0636 -83.5369 83° East 476 548 37,000  Level Cleveland Center
11:25AM 42.0767 -83.3528 84° East 476 548 37,000  Level Cleveland Center
11:26AM 42.0933 -83.1772 83° East 476 548 37,000  Level Cleveland Center
11:27AM 42.1072 -83.0125 83° East 484 557 37,000  Level Cleveland Center
11:28AM 42.1214 -82.8339 84° East 484 557 37,000  Level Cleveland Center
11:29AM 42.1289 -82.6578 87° East 478 550 37,000  Level Cleveland Center
11:30AM 42.1508 -82.4736 81° East 478 550 37,000  Level Cleveland Center
11:31AM 42.1619 -82.2947 85° East 478 550 37,000  Level Cleveland Center
11:32AM 42.1792 -82.1131 83° East 478 550 37,000  Level Cleveland Center
11:33AM 42.1919 -81.9144 85° East 478 550 37,000  Level Cleveland Center
11:34AM 42.2042 -81.7353 85° East 478 550 37,000  Level Cleveland Center
11:35AM 42.2164 -81.5475 85° East 478 550 37,000  Level Cleveland Center
11:36AM 42.2283 -81.3683 85° East 478 550 37,000  Level Cleveland Center
11:37AM 42.2419 -81.1861 84° East 483 556 37,000  Level Cleveland Center
11:38AM 42.2553 -81.0067 84° East 483 556 37,000  Level Cleveland Center
11:39AM 42.2661 -80.8244 85° East 478 550 37,000  Level Cleveland Center
11:40AM 42.2747 -80.6589 86° East 483 556 37,000  Level Cleveland Center
11:41AM 42.2872 -80.4764 85° East 483 556 37,000  Level Cleveland Center
11:42AM 42.2972 -80.2942 86° East 483 556 37,000  Level Cleveland Center
11:43AM 42.3092 -80.1058 85° East 488 562 37,000  Level Cleveland Center
11:44AM 42.3206 -79.9036 86° East 488 562 37,000  Level Cleveland Center
11:45AM 42.3297 -79.7181 86° East 488 562 37,000  Level Cleveland Center
11:46AM 42.3389 -79.5383 86° East 488 562 37,000  Level Cleveland Center
11:47AM 42.3494 -79.3500 86° East 488 562 37,000  Level Cleveland Center
11:48AM 42.3578 -79.1642 86° East 488 562 37,000  Level Cleveland Center
11:49AM 42.3656 -78.9758 87° East 493 567 37,000  Level Cleveland Center
11:50AM 42.3756 -78.7900 86° East 498 573 37,000  Level Cleveland Center
11:51AM 42.3850 -78.6042 86° East 498 573 37,000  Level Cleveland Center
11:52AM 42.3939 -78.4156 86° East 498 573 37,000  Level Cleveland Center
11:53AM 42.4008 -78.2269 87° East 498 573 37,000  Level Cleveland Center
11:54AM 42.4072 -78.0411 87° East 498 573 37,000  Level Cleveland Center
11:55AM 42.4133 -77.8522 87° East 498 573 37,000  Level Cleveland Center
11:56AM 42.4192 -77.6608 88° East 498 573 37,000  Level Cleveland Center
11:57AM 42.4236 -77.5114 88° East 498 573 37,000  Level Cleveland Center
11:58AM 42.4297 -77.2861 88° East 498 573 37,000  Level Cleveland Center
12:00PM 42.4392 -76.9225 88° East 497 572 37,000 -268 Level Boston Center
12:01PM 42.4444 -76.7314 88° East 497 572 36,200 -900 Descending Boston Center
12:02PM 42.4472 -76.5431 89° East 497 572 35,200 -600 Descending Boston Center
12:03PM 42.4517 -76.3519 88° East 497 572 35,000 -100 Descending Boston Center
12:04PM 42.4561 -76.1578 88° East 497 572 35,000  Level Boston Center
12:05PM 42.4581 -75.9722 89° East 497 572 35,000 -300 Level Boston Center
12:06PM 42.4597 -75.7808 89° East 497 572 34,400 -950 Descending Boston Center
12:07PM 42.4628 -75.5953 89° East 497 572 33,100 -2,350 Descending Boston Center
12:08PM 42.4661 -75.4011 89° East 497 572 29,700 -3,223 Descending Boston Center
12:09PM 42.4686 -75.2125 89° East 503 579 26,600 -3,050 Descending Boston Center
12:10PM 42.4711 -75.0242 89° East 498 573 23,600 -3,076 Descending Boston Center
12:11PM 42.4728 -74.8439 89° East 488 562 20,500 -2,800 Descending Boston Center
12:12PM 42.4786 -74.6642 87° East 476 548 18,000 -1,250 Descending Boston Center
12:13PM 42.4797 -74.4922 89° East 435 501 18,000  Level Boston Center
12:14PM 42.4822 -74.3517 89° East 417 480 18,000  Level Boston Center
12:16PM 42.4831 -74.1800 90° East 412 474 18,000 -91 Level Boston Center
12:17PM 42.4503 -73.9961 104° East 412 474 17,800 -700 Descending Boston Center
12:18PM 42.4247 -73.8633 105° East 414 476 16,600 -1,250 Descending Boston Center
12:19PM 42.3933 -73.7050 105° East 408 470 15,300 -1,263 Descending Boston Center
12:19PM 42.3656 -73.5808 107° East 392 451 14,200 -1,150 Descending Boston Center
12:21PM 42.3378 -73.4286 104° East 381 438 13,000 -1,163 Descending Boston Center
12:22PM 42.2825 -73.3183 124° Southeast 350 403 11,700 -1,200 Descending Boston Center
12:23PM 42.2119 -73.2475 143° Southeast 337 388 10,600 -1,230 Descending Boston Center
12:24PM 42.1375 -73.1819 147° Southeast 311 358 9,200 -1,344 Descending Boston Center
12:25PM 42.0650 -73.1142 145° Southeast 296 341 7,800 -1,448 Descending Boston Center
12:26PM 42.0111 -73.0631 145° Southeast 287 330 6,400 -1,364 Descending Boston Center
12:26PM 41.9531 -73.0094 146° Southeast 282 325 5,300 -1,096 Descending Boston Center
12:27PM 41.8867 -72.9503 146° Southeast 262 302 4,300 -934 Descending Boston Center
12:29PM 41.8325 -72.8997 145° Southeast 243 280 3,400 -585 Descending Boston Center
12:30PM 41.8267 -72.8328 97° East 206 237 3,100 -537 Descending Boston Center
12:31PM 41.8622 -72.7914 41° Northeast 176 203 2,300 -942 Descending Boston Center
12:32PM 41.8956 -72.7469 45° Northeast 158 182 1,200 -893 Descending Boston Center
12:33PM 41.9228 -72.7136 42° Northeast 134 154 500 -689 Descending Boston Center